Location: Guadalupe River State Park
(29.8761°N, 98.5041°W)
Time: 12:37:20
(UTC-06:00)

Hubble Space Telescope - Visible Passes

Search period start: 17 November 2019 00:00
Search period end: 27 November 2019 00:00
Orbit: 536 x 540 km, 28.5° (Epoch: 16 November)

Date Brightness Start Highest point End Pass type
(mag) Time Alt. Az. Time Alt. Az. Time Alt. Az.
17 Nov 2.2 18:44:47 10° SW 18:48:15 26° SSE 18:49:56 20° ESE visible
17 Nov 4.0 20:25:06 10° WSW 20:25:16 11° WSW 20:25:16 11° WSW visible
18 Nov 1.9 18:33:56 10° SW 18:37:36 31° SSE 18:39:59 18° ESE visible
18 Nov 3.6 20:14:30 10° WSW 20:15:19 16° WSW 20:15:19 16° WSW visible
19 Nov 1.7 18:23:08 10° SW 18:26:58 38° SSE 18:30:01 15° E visible
19 Nov 3.2 20:03:53 10° W 20:05:22 21° WSW 20:05:22 21° WSW visible
20 Nov 1.5 18:12:24 10° WSW 18:16:21 45° SSE 18:20:03 11° E visible
20 Nov 2.7 19:53:18 10° W 19:55:23 28° WSW 19:55:23 28° WSW visible
21 Nov 1.3 18:01:43 10° WSW 18:05:44 52° SSE 18:09:45 10° E visible
21 Nov 2.1 19:42:42 10° W 19:45:24 39° WSW 19:45:24 39° WSW visible
22 Nov 1.4 19:32:08 10° W 19:35:26 54° WSW 19:35:26 54° WSW visible
23 Nov 0.9 19:21:33 10° W 19:25:30 68° SSW 19:25:30 68° SSW visible
24 Nov 0.9 19:10:59 10° W 19:15:04 64° S 19:15:37 56° SE visible
25 Nov 1.1 19:00:25 10° W 19:04:28 57° S 19:05:48 37° SE visible
26 Nov 1.4 18:49:51 10° W 18:53:52 50° SSW 18:56:04 24° SE visible
